Jackpot

Texas Poker Multi Jackpot System

Kini Telah hadir Jackpot SUPER ROYAL FLUSH

Kini Telah hadir Jackpot 2000 (khusus table VIP keatas).

Ikutilah global jackpot yang tersedia di system kami, dengan system jackpot terbaru dan pertama di indonesia, anda dapat membeli jackpot dengan harga 100 rupiah saja dan menangkan hadiahnya hingga puluhan juta rupiah.

Jackpot bukanlah suatu keharusan untuk dibeli, namun kami memberikan suatu fitur tambahan untuk member tercinta dari www.inikartu.com.

Terdapat tiga pilihan harga jackpot yang bisa anda beli yaitu :100,500,1000 dan 2000(khusus table VIP Keatas) rupiah.

Hadiah dari Multi jackpot system www.inikartu.com

  1. full house x 10 harga jackpot yang anda beli.
      (contoh:anda membeli 1000 maka:1000 X10 = 10.000)
  2. four of kind x 250 harga jackpot yang anda beli
      (contoh:anda membeli 1000 maka:1000 X250 = 250.000)
  3. Straight flush x 1200
      (contoh:anda membeli 1000 maka:1000 X1200 = 1.200.000)
  4. Royal flush x 10000 harga jackpot yang anda beli
      (contoh:anda membeli 1000 maka:1000 X10000 = 10.000.000)
  5. SUPER ROYAL FLUSH x 30000 harga jackpot yang anda beli
      (contoh:anda membeli 1000 maka:1000 X30000 = 30.000.000)

Kondisi kartu

  1. full house adalah kondisi kartu dimana kartu anda dan kartu tengah dengan total 7 kartu bisa mendapatkan nilai 5 kartu dengan kombinasi 1 tris(three of kind) dan 1 pair, contoh 3 kartu 10 dan 2 kartu 5
  2. Four of kind adalah kondisi kartu dimana kartu anda dan kartu tengah dengan total 7 kartu bisa mendapatkan nilai 5 kartu dengan kombinasi 4 kartu yang sama jumlah dan 1 kartu apapun juga contoh anda mendapatkan 4 buah kartu angka 3 dan 1 kartu apapun.
  3. Staright flush adalah kondisi kartu dimana kartu anda dan kartu tengah dengan total 7 kartu bisa mendapatkan nilai 5 kartu dengan kombinasi seri / staright dengan kembang yang sama contoh : urutan kartu dari angka 5, 6, 7, 8 , 9 10 dengan kembang yg sama misalnya as hati
  4. Royal flush adalah kondisi kartu dimana kartu anda dan kartu tengah dengan total 7 kartu bisa mendapatkan nilai 5 kartu dengan kombinasi seri / staright dengan kembang yang sama tetapi kartu tersebut haruslah dimulai dari 10. contoh 10, Queen, Jack, King dan aces dengan kembang yang sama
  5. Super Royal flush adalah kondisi kartu dimana Kedua kartu anda digabung dengan 3 kartu pertama meja haruslah royal flush. contoh kartu anda 10,Queen kembang sama dan 3 kartu pertama meja adalah Jack, King dan aces dengan kembang yang sama

Demikian adalah penjelasan dari Multi Jackpot www.inikartu.com terima kasih dan selamat bermain salam hoki dari kami

Texas Poker Jackpot Winner

TOP SUPER ROYAL FLUSH
No.TanggalNamaPriceWin
123/07 02:27TOENK06Super Royal flush15,000,000
222/07 22:22R3FILSuper Royal flush60,000,000
322/07 21:12WIL9Super Royal flush15,000,000
422/07 16:35T4D0015761Super Royal flush6,000,000
522/07 13:28CASKIN7SSuper Royal flush3,000,000
TOP ROYAL FLUSH
No.TanggalNamaPriceWin
123/07 16:28ANGSURYARoyal flush10,000,000
223/07 16:06FERYLADARoyal flush5,000,000
323/07 15:18SAIYA331Royal flush10,000,000
423/07 15:02BLARACK888Royal flush500,000
523/07 14:40UNENG20Royal flush2,000,000
TOP STRAIGHT FLUSH
No.TanggalNamaPriceWin
123/07 16:51IMRFQ27Straight Flush600,000
223/07 16:48LK4DBERONDONGStraight Flush60,000
323/07 16:47SNI52146Straight Flush240,000
423/07 16:46KEMOT84Straight Flush240,000
523/07 16:46YAMADAN151Straight Flush1,200,000
LATEST JACKPOT
No.TanggalNamaPriceWin
123/07 16:51TN0X2Full House5,000
223/07 16:51RAZIQ39Full House2,000
323/07 16:51ADERIO79Full House10,000
423/07 16:51SAXDIN589Full House5,000
523/07 16:51ANJINGJPFull House5,000
623/07 16:51JPBOS11110Four Of A Kind25,000
723/07 16:51LUGI0609Full House2,000
823/07 16:51IMRFQ27Straight Flush600,000
923/07 16:51SONNDUGFull House5,000
1023/07 16:51ALVINO_01Full House2,000
1123/07 16:51GOBEX007Full House2,000
1223/07 16:51BTT990Full House5,000
1323/07 16:51HARIKSAN79Full House5,000
1423/07 16:51SENTA119Full House2,000
1523/07 16:51WN9K_69Full House1,000
1623/07 16:51AT4DGOBLOKFull House5,000
1723/07 16:51D990BE32Full House5,000
1823/07 16:51BK4358GDFull House2,000
1923/07 16:50BLOE12Full House10,000
2023/07 16:50AE61FF1FFull House2,000
2123/07 16:50BBBF496BFull House5,000
2223/07 16:50E2F93D49Full House2,000
2323/07 16:50QETQETFull House1,000
2423/07 16:50KT46Full House5,000
2523/07 16:50MARBOROTEAFull House2,000
2623/07 16:50TUHULAHEFull House1,000
2723/07 16:50ISCO17Full House5,000
2823/07 16:50CONDITIONSFull House10,000
2923/07 16:50SUBETO008Full House2,000
3023/07 16:50SYAMARI789Four Of A Kind500,000
3123/07 16:509GANA9Full House1,000
3223/07 16:50AF473DA3Full House5,000
3323/07 16:50ZHEE09Full House2,000
3423/07 16:50JAWI220Full House2,000
3523/07 16:50DAKEM17Full House2,000
3623/07 16:50DRZUV4RG7CFull House2,000
3723/07 16:50SIDRATFull House20,000
3823/07 16:50L4P8N888Full House5,000
3923/07 16:50KACONG120Full House2,000
4023/07 16:50AFD133Full House20,000
4123/07 16:50COOLIOFull House5,000
4223/07 16:50JULLY85Full House20,000
4323/07 16:50TEMPRAFull House2,000
4423/07 16:50TAUHID111Full House5,000
4523/07 16:50KOAK15Four Of A Kind25,000
4623/07 16:50AA5659A7Full House2,000
4723/07 16:50BLACKBIMFull House2,000
4823/07 16:50JEGGER00Full House1,000
4923/07 16:50B77CB825Full House1,000
5023/07 16:50DIEK444Full House2,000

Domino Multi Jackpot System

Ikutilah global jackpot yang tersedia di system kami, dengan system jackpot terbaru dan pertama di indonesia, anda dapat membeli jackpot dengan harga 100 rupiah saja dan menangkan hadiahnya hingga puluhan juta rupiah.

Jackpot bukanlah suatu keharusan untuk dibeli, namun kami memberikan suatu fitur tambahan untuk member tercinta dari www.inikartu.com.

Terdapat tiga pilihan harga jackpot yang bisa anda beli yaitu :100,500 dan 1000 rupiah.

Hadiah dari Multi jackpot system www.inikartu.com

  1. Murni Kecil x 50 harga jackpot yang anda beli.
      (contoh:anda membeli 1000 maka:1000 X 50 = 50.000)
  2. Murni Besar x 50 harga jackpot yang anda beli
      (contoh:anda membeli 1000 maka:1000 X 50 = 50.000)
  3. BALAK x 100 harga jackpot yang anda beli
      (contoh:anda membeli 1000 maka:1000 X 100 = 100.000)
  4. ENAM DEWA x 6666 harga jackpot yang anda beli
      (contoh:anda membeli 1000 maka:1000 X 6666 = 6.666.000)

Demikian adalah penjelasan dari Multi Jackpot www.inikartu.com terima kasih dan selamat bermain salam hoki dari kami

Domino Jackpot Winner

TOP ENAM DEWA
No.TanggalNamaPriceWin
123/07 16:27KALVENOmurni enam3,333,000
223/07 15:14BXU4HETHYImurni enam3,333,000
323/07 15:10AB1719SKmurni enam6,666,000
423/07 14:48H4J4RBOYmurni enam3,333,000
523/07 13:56MANSAR91murni enam3,333,000
TOP BALAK
No.TanggalNamaPriceWin
123/07 16:50STIRJUGAbalak100,000
223/07 16:50ROJACKSEbalak100,000
323/07 16:46BONENG01balak100,000
423/07 16:44STICKER5balak50,000
523/07 16:42BWXYZ66balak50,000
LATEST JACKPOT
No.TanggalNamaPriceWin
123/07 16:51GAZZPOLLLLmurni kecil25,000
223/07 16:50ADEUYI123murni besar25,000
323/07 16:50WAWE87murni kecil5,000
423/07 16:50ROBI857murni kecil25,000
523/07 16:50STIRJUGAbalak100,000
623/07 16:50AD0635AFmurni besar5,000
723/07 16:50RIZKI2013murni besar50,000
823/07 16:50ROJACKSEbalak100,000
923/07 16:49NDUNK05murni kecil25,000
1023/07 16:49BALAPAS888murni kecil50,000
1123/07 16:48COCOTE_9murni kecil50,000
1223/07 16:47OGANZZlucky9910,000
1323/07 16:46BONENG01balak100,000
1423/07 16:46BOSANTFmurni kecil5,000
1523/07 16:46JEKLIN77murni kecil50,000
1623/07 16:46HERI77ANDAmurni besar50,000
1723/07 16:45DENIS1885murni besar25,000
1823/07 16:45MOYAPOYA29murni besar25,000
1923/07 16:45C88ACHANK7539murni besar50,000
2023/07 16:44STICKER5balak50,000
2123/07 16:44CHANG61murni kecil50,000
2223/07 16:43PANDAWA_48murni kecil5,000
2323/07 16:43COBAIN7777murni kecil5,000
2423/07 16:42BWXYZ66balak50,000
2523/07 16:41AYPELmurni kecil25,000
2623/07 16:41DENIS1885balak50,000
2723/07 16:40AD26796VPTmurni besar50,000
2823/07 16:40AMSAH2606balak100,000
2923/07 16:40WASPADAI66murni kecil25,000
3023/07 16:39MERAH66balak10,000
3123/07 16:39BENIS99murni besar50,000
3223/07 16:39LANI234murni kecil50,000
3323/07 16:39TENRITATTAmurni besar50,000
3423/07 16:38ENASANmurni kecil50,000
3523/07 16:38SAVAGE2727murni besar25,000
3623/07 16:38RIZKYP90murni besar25,000
3723/07 16:38SAIDE9999murni kecil50,000
3823/07 16:37SJPOKER035balak10,000
3923/07 16:36JITEM200murni kecil50,000
4023/07 16:34JIE69murni kecil25,000
4123/07 16:34KURIS99murni besar50,000
4223/07 16:33N1KO01murni besar50,000
4323/07 16:33RAEZ123murni kecil50,000
4423/07 16:32GOTRIEbalak100,000
4523/07 16:32LEXCImurni besar50,000
4623/07 16:32CIMEEHmurni besar25,000
4723/07 16:31MEHPERRmurni kecil25,000
4823/07 16:31SJPOKER035murni besar5,000
4923/07 16:31JAMHARI12murni besar5,000
5023/07 16:29BRENG_SEX9murni besar25,000

Ceme Multi Jackpot System

Jackpot dilihat dari gabungan kartu pemain dengan kartu bandar. Bandar harus membeli jackpot sebanyak jumlah player yang sedang duduk. Sebagai contoh bila terdapat 3 pemain duduk bermain, dan bandar memutuskan untuk membeli jackpot Rp 1.000, maka pada periode tersebut bandar akan membeli jackpot sebanyak 3xRp1.000 = Rp3.000.

Jackpot bukanlah suatu keharusan untuk dibeli, namun kami memberikan suatu fitur tambahan untuk member tercinta dari www.inikartu.com.

Terdapat tiga pilihan harga jackpot yang bisa anda beli yaitu :100,500 dan 1000 rupiah.

Hadiah dari Multi jackpot system www.inikartu.com

  1. Murni Kecil x 50 harga jackpot yang anda beli.
      (contoh:anda membeli 1000 maka:1000 X 50 = 50.000)
  2. Murni Besar x 50 harga jackpot yang anda beli
      (contoh:anda membeli 1000 maka:1000 X 50 = 50.000)
  3. BALAK x 200 harga jackpot yang anda beli
      (contoh:anda membeli 1000 maka:1000 X 200 = 200.000)
  4. ENAM DEWA x 6666 harga jackpot yang anda beli
      (contoh:anda membeli 1000 maka:1000 X 6666 = 6.666.000)

Demikian adalah penjelasan dari Multi Jackpot www.inikartu.com terima kasih dan selamat bermain salam hoki dari kami

Ceme Jackpot Winner

TOP ENAM DEWA
No.TanggalNamaPriceWin
123/07 16:28CHIENKmurni enam6,666,000
223/07 16:24BEZERTA88murni enam3,333,000
323/07 16:23AHUELmurni enam6,666,000
423/07 16:19ADO002murni enam6,666,000
523/07 16:19RACIK99murni enam3,333,000
TOP BALAK
No.TanggalNamaPriceWin
123/07 16:50ACHER90balak200,000
223/07 16:50AMGGUR005balak100,000
323/07 16:50NASRI02balak200,000
423/07 16:50BIBIH12balak100,000
523/07 16:49ROMILbalak200,000
LATEST JACKPOT
No.TanggalNamaPriceWin
123/07 16:51DANGDER97murni kecil50,000
223/07 16:51M4NFORM4RSmurni besar50,000
323/07 16:51F88B03CEmurni besar50,000
423/07 16:50NASRI02murni kecil50,000
523/07 16:50LINDA088murni kecil25,000
623/07 16:50NASRI02murni kecil50,000
723/07 16:50TOLKON660murni kecil50,000
823/07 16:50ACHER90balak200,000
923/07 16:50AMGGUR005balak100,000
1023/07 16:50FIRDAU86murni kecil50,000
1123/07 16:50DEGUL27murni kecil50,000
1223/07 16:50TAYPAK08murni besar5,000
1323/07 16:50NASRI02balak200,000
1423/07 16:50BIBIH12balak100,000
1523/07 16:50GUMAYmurni besar50,000
1623/07 16:50MATSONGmurni kecil50,000
1723/07 16:50ENDOY17murni kecil50,000
1823/07 16:49B61BIN07954murni besar50,000
1923/07 16:49B90LYUSUF571murni besar50,000
2023/07 16:49SUGEHmurni besar25,000
2123/07 16:49ROMILbalak200,000
2223/07 16:49AGOES99999murni kecil25,000
2323/07 16:49B18ANYANK383murni kecil25,000
2423/07 16:49TITIANbalak20,000
2523/07 16:49GRH15balak20,000
2623/07 16:49TITIANmurni besar5,000
2723/07 16:49UCUY004murni besar50,000
2823/07 16:49ADALATmurni besar5,000
2923/07 16:49HABITUAL9balak20,000
3023/07 16:49PRAY14balak200,000
3123/07 16:49ACHARENAmurni kecil5,000
3223/07 16:49QMSPALMmurni kecil50,000
3323/07 16:49JUNTAXSmurni kecil50,000
3423/07 16:49B4B0Nmurni kecil25,000
3523/07 16:48ICKYANmurni kecil5,000
3623/07 16:48MRJONYmurni kecil5,000
3723/07 16:48PEEN87murni kecil50,000
3823/07 16:48RR1985balak20,000
3923/07 16:48DANGDER97murni besar50,000
4023/07 16:48KISMINT111murni besar50,000
4123/07 16:48ION8GNNNN6murni besar50,000
4223/07 16:48A831B206murni besar50,000
4323/07 16:48SIHIDEUNGmurni besar50,000
4423/07 16:48A831B206balak200,000
4523/07 16:48MANGSUGENGbalak20,000
4623/07 16:48SARO474murni kecil5,000
4723/07 16:48JSON533murni kecil50,000
4823/07 16:48RAFFIRRmurni kecil50,000
4923/07 16:48A82ZANBERAN113murni kecil5,000
5023/07 16:48ACE789balak200,000